Probability
0 3 26 39 32 32 35 42 39 35 35 39 39 35 32 35 32 29 35 48 45 45 39 42 42 45 45 42 45 55 55 61 58 52 65 68 68 71 68 65 55 48 61
0 6 19 32 39 39 39 35 35 32 29 32 35 32 26 26 29 32 32 32 29 29 29 39 39 42 42 42 45 45 52 52 48 45 58 52 55 61 61 68 58 45 55
3 16 16 32 35 35 35 29 26 29 29 29 35 39 32 26 29 32 23 26 26 26 23 26 32 35 39 42 39 42 45 45 39 45 42 39 39 52 55 61 55 61 55
13 16 16 29 42 39 32 23 19 13 13 16 19 23 26 29 23 19 19 19 23 26 23 29 35 35 35 39 39 39 42 39 39 29 19 19 23 39 52 55 58 52 55
13 10 16 26 32 35 23 13 13 13 16 19 19 23 16 16 23 23 16 23 26 35 32 32 35 29 32 29 29 35 32 32 32 19 10 13 19 39 52 48 48 48 52
0 6 10 26 26 16 16 13 13 13 16 19 23 19 19 23 23 19 19 23 19 26 32 29 29 26 19 23 32 26 32 23 13 3 3 13 23 42 55 55 52 48 48
0 3 6 26 26 16 10 13 10 16 16 13 16 19 19 19 19 16 16 23 19 23 29 29 29 19 19 23 29 32 26 19 3 3 6 10 23 55 55 52 55 48 42
0 0 3 13 13 6 6 6 6 6 13 10 10 16 16 13 16 16 16 23 23 29 29 29 29 19 19 19 26 26 23 10 10 3 6 6 32 52 48 52 48 55 48
0 3 3 3 3 10 3 6 10 6 6 6 6 13 16 16 16 19 16 19 23 26 29 23 19 23 16 23 26 19 16 16 0 3 10 10 35 42 39 48 52 58 58
0 3 3 3 3 3 3 3 6 10 6 6 6 6 16 13 10 6 10 13 19 13 13 13 26 19 19 23 19 23 19 6 0 3 10 13 29 29 39 48 45 55 52
0 0 3 0 3 0 3 3 3 3 3 3 0 0 0 0 0 0 0 10 10 10 10 10 16 13 13 16 19 13 3 0 3 3 10 23 32 35 42 45 45 48 48
0 0 0 0 0 0 3 0 0 3 0 0 0 0 0 0 0 0 0 0 6 6 3 3 6 0 0 0 0 3 0 3 3 3 10 23 26 29 32 35 39 39 39
0 0 0 0 0 0 0 0 0 0 0 0 0 0 0 0 0 0 0 0 0 0 0 0 0 0 0 0 0 0 0 0 3 6 10 23 19 23 19 26 19 26 29
0 0 0 0 0 0 0 0 0 0 0 0 0 0 0 0 0 0 0 0 0 0 0 0 0 0 0 0 0 0 0 0 0 3 3 19 19 26 23 19 23 26 29
0 0 0 0 0 0 0 0 0 0 0 0 0 0 0 0 0 0 0 0 0 0 0 0 0 0 0 0 0 0 0 0 0 0 3 19 19 16 23 19 16 26 26
0 0 0 3 0 0 0 0 0 0 0 0 0 0 0 0 0 0 0 0 0 0 0 0 0 0 0 0 0 0 0 0 0 0 0 0 10 16 19 10 19 19 23
0 0 0 3 0 0 0 0 0 0 0 0 0 0 0 0 0 0 0 0 0 0 0 0 0 0 0 0 0 0 0 0 0 0 0 0 3 6 10 13 16 19 19
0 0 0 0 0 0 0 0 0 0 0 0 0 0 0 0 0 0 0 0 0 0 0 0 0 0 0 0 0 0 0 0 0 0 0 0 3 6 6 6 10 10 19
0 0 0 0 0 0 0 0 0 0 0 0 0 0 0 0 0 0 0 0 0 0 0 0 0 0 0 0 0 0 0 0 0 0 0 0 0 3 6 6 6 10 13
0 0 0 0 0 0 0 0 0 0 0 0 0 0 0 0 0 0 0 0 0 0 0 0 0 0 0 0 0 0 0 0 0 0 0 0 0 0 0 0 0 3 6
0 0 0 0 0 0 0 0 0 0 0 0 0 0 0 0 0 0 0 0 0 0 0 0 0 0 0 0 0 0 0 0 0 0 0 0 0 0 0 0 0 0 0
0 0 0 0 0 0 0 0 0 0 0 0 0 0 0 0 0 0 0 0 0 0 0 0 0 0 0 0 0 0 0 0 0 0 0 0 0 0 0 0 0 0 0
0 0 0 0 0 0 0 0 0 0 0 0 0 0 0 0 0 0 0 0 0 0 0 0 0 0 0 0 0 0 0 0 0 0 0 0 0 0 0 0 0 0 0
0 0 0 0 0 0 0 0 0 0 0 0 0 0 0 0 0 0 0 0 0 0 0 0 0 0 0 0 0 0 0 0 0 0 0 0 0 0 0 0 0 0 0
0 0 0 0 0 0 0 0 0 0 0 0 0 0 0 0 0 0 0 0 0 0 0 0 0 0 0 0 0 0 0 0 0 0 0 0 0 0 0 0 0 0 0
0 0 0 0 0 0 0 0 0 0 0 0 0 0 0 0 0 0 0 0 0 0 0 0 0 0 0 0 0 0 0 0 0 0 0 0 0 0 0 0 0 0 0
Height
5877 5877 5876 5876 5876 5875 5875 5875 5874 5874 5873 5873 5873 5872 5872 5872 5872 5871 5871 5871 5871 5871 5871 5871 5872 5873 5873 5873 5874 5875 5876 5877 5877 5878 5879 5880 5881 5881 5882 5883 5884 5884 5885
5877 5876 5876 5876 5875 5875 5875 5874 5874 5873 5873 5873 5872 5872 5872 5871 5871 5871 5871 5871 5871 5871 5871 5871 5872 5872 5872 5873 5873 5874 5875 5875 5876 5877 5878 5879 5880 5880 5881 5882 5883 5883 5884
5876 5876 5876 5875 5875 5874 5874 5874 5874 5873 5872 5872 5872 5871 5871 5871 5870 5870 5870 5870 5870 5870 5871 5871 5871 5871 5872 5872 5873 5873 5874 5874 5875 5876 5877 5878 5878 5879 5880 5881 5882 5882 5883
5875 5875 5875 5875 5874 5874 5874 5873 5873 5872 5872 5871 5871 5870 5870 5870 5870 5870 5869 5869 5870 5870 5870 5870 5870 5870 5871 5871 5872 5872 5873 5873 5874 5875 5876 5876 5877 5878 5879 5880 5880 5881 5882
5874 5874 5874 5874 5873 5873 5873 5872 5872 5872 5871 5871 5870 5870 5870 5869 5869 5869 5869 5869 5869 5869 5869 5869 5869 5869 5870 5870 5870 5871 5871 5872 5873 5874 5874 5875 5876 5876 5877 5878 5879 5880 5880
5873 5873 5873 5873 5872 5872 5872 5872 5871 5871 5870 5870 5870 5869 5869 5869 5868 5868 5868 5868 5868 5868 5868 5868 5868 5868 5868 5868 5869 5870 5870 5871 5871 5872 5873 5874 5874 5875 5876 5877 5878 5878 5879
5872 5872 5872 5872 5871 5871 5871 5871 5870 5870 5870 5869 5869 5868 5868 5868 5867 5867 5867 5867 5867 5867 5867 5867 5867 5867 5867 5867 5868 5868 5869 5869 5870 5870 5871 5872 5873 5874 5874 5875 5876 5877 5877
5871 5871 5871 5871 5870 5870 5870 5870 5869 5869 5868 5868 5868 5867 5867 5866 5866 5865 5865 5865 5865 5865 5865 5865 5865 5865 5866 5866 5866 5867 5867 5868 5868 5869 5869 5870 5871 5872 5873 5873 5874 5875 5875
5870 5870 5870 5869 5869 5869 5869 5868 5868 5868 5867 5867 5866 5866 5865 5865 5864 5864 5864 5864 5864 5864 5864 5864 5864 5864 5864 5864 5865 5865 5865 5866 5866 5867 5868 5868 5869 5870 5871 5872 5872 5873 5873
5868 5868 5868 5868 5868 5868 5868 5867 5867 5866 5866 5865 5865 5865 5864 5864 5863 5863 5862 5862 5862 5863 5863 5863 5863 5863 5863 5863 5863 5864 5864 5864 5865 5865 5866 5867 5867 5868 5869 5869 5870 5871 5871
5866 5866 5866 5867 5867 5866 5866 5866 5865 5865 5864 5864 5864 5863 5863 5862 5862 5861 5861 5861 5861 5861 5861 5861 5861 5861 5861 5861 5862 5862 5863 5863 5863 5864 5864 5865 5865 5866 5867 5867 5868 5868 5869
5864 5865 5865 5865 5865 5865 5865 5864 5864 5863 5863 5863 5862 5862 5861 5861 5861 5860 5860 5860 5860 5859 5860 5860 5860 5860 5860 5860 5861 5861 5861 5861 5862 5862 5863 5863 5863 5864 5864 5865 5866 5866 5867
5862 5862 5863 5863 5863 5863 5863 5863 5862 5862 5862 5861 5861 5861 5860 5860 5859 5859 5859 5858 5858 5858 5858 5858 5858 5859 5859 5859 5859 5860 5860 5860 5860 5861 5861 5861 5861 5862 5863 5863 5864 5864 5865
5861 5860 5860 5861 5861 5861 5861 5861 5861 5860 5860 5860 5860 5859 5859 5859 5858 5858 5858 5857 5857 5857 5857 5857 5857 5857 5857 5857 5858 5858 5858 5859 5859 5859 5859 5859 5859 5860 5860 5861 5862 5862 5863
5859 5859 5858 5859 5859 5859 5859 5859 5859 5859 5858 5858 5858 5858 5858 5858 5857 5857 5857 5856 5856 5856 5856 5856 5856 5856 5856 5856 5856 5857 5857 5857 5858 5858 5858 5858 5858 5858 5858 5859 5860 5860 5860
5857 5857 5857 5857 5857 5857 5857 5857 5857 5857 5857 5857 5857 5857 5857 5856 5856 5856 5856 5855 5855 5855 5854 5855 5855 5855 5855 5855 5855 5855 5856 5856 5856 5856 5856 5857 5857 5857 5857 5857 5857 5858 5858
5855 5855 5855 5855 5855 5855 5855 5855 5855 5855 5855 5855 5855 5855 5855 5855 5855 5854 5854 5854 5854 5854 5853 5854 5854 5854 5854 5854 5854 5854 5854 5855 5855 5855 5855 5855 5856 5856 5855 5855 5855 5855 5856
5853 5853 5853 5853 5853 5853 5853 5853 5853 5853 5853 5853 5853 5853 5853 5853 5853 5853 5853 5853 5852 5852 5853 5853 5853 5853 5853 5853 5853 5853 5853 5853 5854 5854 5854 5854 5854 5854 5854 5854 5853 5852 5853
5851 5851 5851 5851 5851 5852 5852 5852 5851 5852 5852 5852 5852 5852 5852 5852 5852 5851 5851 5851 5851 5852 5852 5852 5852 5852 5852 5852 5852 5852 5852 5852 5852 5853 5853 5853 5853 5853 5853 5853 5852 5851 5852
5849 5849 5849 5850 5850 5850 5850 5850 5850 5851 5851 5850 5850 5850 5851 5851 5850 5850 5850 5850 5850 5850 5851 5851 5851 5851 5851 5851 5851 5851 5851 5851 5851 5851 5851 5852 5852 5852 5852 5851 5851 5851 5851
5848 5848 5848 5848 5848 5849 5849 5849 5849 5849 5849 5849 5849 5849 5849 5849 5849 5849 5849 5849 5849 5849 5850 5850 5850 5850 5850 5850 5851 5851 5851 5850 5850 5851 5851 5851 5851 5850 5850 5850 5850 5850 5850
5847 5847 5847 5847 5847 5847 5848 5848 5848 5848 5848 5848 5848 5848 5848 5848 5848 5848 5848 5848 5848 5848 5849 5849 5849 5849 5849 5849 5850 5850 5850 5850 5849 5850 5850 5849 5849 5849 5849 5849 5849 5849 5849
5845 5845 5846 5846 5846 5846 5846 5846 5847 5847 5848 5848 5847 5847 5847 5847 5847 5847 5847 5847 5848 5848 5848 5848 5848 5849 5848 5848 5849 5849 5849 5849 5849 5849 5848 5848 5848 5848 5848 5847 5847 5847 5847
5844 5844 5844 5844 5845 5845 5845 5846 5846 5847 5847 5847 5846 5846 5847 5847 5847 5847 5847 5847 5847 5847 5847 5847 5848 5848 5848 5848 5848 5848 5848 5848 5848 5848 5848 5847 5847 5846 5846 5845 5845 5845 5846
5842 5843 5843 5843 5844 5844 5844 5845 5845 5846 5846 5846 5846 5846 5846 5846 5846 5846 5846 5846 5846 5847 5847 5847 5847 5847 5847 5847 5847 5847 5847 5847 5847 5846 5846 5846 5846 5845 5844 5844 5844 5844 5844
5842 5842 5842 5842 5843 5843 5843 5844 5844 5844 5845 5845 5845 5845 5845 5846 5846 5846 5845 5846 5845 5846 5846 5846 5846 5846 5846 5846 5846 5845 5845 5845 5845 5845 5845 5844 5844 5844 5843 5843 5842 5842 5842
Wind_Speed
3 3 3 4 4 4 4 4 4 5 5 5 5 5 4 4 5 4 4 4 4 4 3 3 3 3 4 4 4 5 6 7 6 7 7 6 6 7 6 6 7 7 7
3 3 3 3 4 4 4 4 4 4 4 5 5 5 5 5 5 5 4 4 4 4 2 3 3 3 3 3 4 4 5 6 7 7 7 7 7 7 7 7 6 7 7
3 3 4 4 4 4 4 4 5 5 5 5 5 5 5 5 5 5 5 5 4 4 3 3 3 3 3 3 4 5 5 5 6 7 7 7 8 7 7 7 7 7 7
4 4 4 4 5 4 5 5 5 5 5 5 5 5 5 5 6 6 6 6 4 4 4 3 4 4 4 4 4 5 5 6 6 6 7 8 8 8 8 8 8 8 7
4 4 4 5 5 5 5 5 6 5 5 5 6 5 5 6 6 6 7 6 5 5 4 4 4 5 5 5 5 5 6 7 7 7 7 7 8 8 9 9 9 8 8
5 5 5 5 5 5 5 5 6 5 5 5 6 6 6 6 7 7 7 6 6 6 6 5 5 5 5 5 5 5 6 7 7 8 8 8 8 8 8 9 9 10 9
5 6 5 5 5 5 5 6 6 5 5 5 6 6 6 6 7 7 8 7 7 6 6 6 6 5 6 6 5 6 6 7 7 7 8 8 8 8 8 9 9 10 10
7 6 6 6 6 6 6 6 6 6 6 6 6 6 7 7 7 7 8 7 6 6 6 6 6 6 6 6 6 6 6 6 7 7 8 8 9 9 9 9 9 10 10
7 7 6 6 6 7 7 7 6 6 6 6 7 7 7 7 7 7 7 7 6 6 6 6 6 6 6 6 6 7 6 6 7 8 8 8 9 10 10 10 9 10 11
8 7 8 7 7 7 7 7 7 7 7 7 7 8 8 8 8 8 7 7 6 6 6 6 6 6 5 6 5 6 6 6 6 7 8 8 9 10 10 10 10 11 11
8 8 8 8 8 8 7 7 7 7 7 7 7 7 8 8 7 7 7 7 7 6 7 7 7 6 6 5 5 5 6 6 5 6 7 8 8 9 9 10 10 10 10
8 8 8 8 8 8 7 7 7 7 7 7 7 7 7 7 6 6 6 7 7 7 7 7 7 7 6 6 6 6 6 5 5 6 6 7 7 8 9 9 9 10 10
9 9 8 8 8 8 8 8 7 7 7 7 7 7 7 6 5 6 6 6 6 6 6 6 6 6 6 6 6 6 6 5 5 5 6 7 7 8 8 9 9 9 10
8 8 8 7 7 8 8 9 8 7 7 6 6 6 6 6 6 6 6 6 6 5 5 5 6 6 5 5 6 6 6 5 5 6 7 7 7 7 8 8 8 9 10
8 8 8 8 8 8 8 8 7 7 7 7 6 6 6 6 6 6 7 6 6 5 4 5 6 5 5 5 5 5 5 6 6 6 6 7 7 7 8 8 9 10 10
9 9 9 9 9 8 8 7 7 7 7 7 6 6 6 6 6 6 6 6 5 4 4 5 5 5 5 4 5 4 5 5 6 6 6 7 7 7 7 8 9 9 10
8 9 8 8 9 8 8 7 7 7 6 6 6 6 6 6 6 6 7 6 5 4 4 4 4 4 4 4 4 4 4 5 5 6 6 6 6 7 7 8 8 9 10
7 8 9 8 8 8 8 7 8 7 6 6 6 6 7 7 7 7 6 6 4 4 4 4 4 4 4 4 4 3 4 4 5 5 5 5 6 6 6 7 7 7 8
7 7 8 8 7 7 7 7 6 6 7 7 6 7 7 7 6 6 6 6 5 4 4 4 4 4 3 3 3 3 4 4 4 4 4 5 6 6 6 6 6 6 7
7 7 7 8 8 7 6 6 5 6 6 6 6 6 7 7 6 6 6 5 5 4 4 4 5 4 4 4 3 4 4 4 4 4 4 4 5 6 6 6 6 6 6
6 6 6 7 7 7 7 6 6 6 6 6 6 6 6 5 6 6 5 5 4 4 4 4 5 5 4 4 4 4 4 4 4 4 4 5 5 6 6 6 6 6 6
7 6 6 6 5 6 6 6 6 6 5 5 5 5 5 5 5 5 4 4 3 3 4 4 4 4 4 4 4 4 5 5 4 5 5 5 6 6 6 6 6 6 6
8 7 6 5 5 5 6 6 6 6 5 5 6 5 5 4 3 3 3 2 2 3 4 3 3 4 4 4 5 5 4 4 4 5 6 6 6 6 6 6 7 7 7
7 7 7 6 6 5 5 6 6 5 5 5 5 4 3 3 2 2 3 3 3 3 3 3 3 3 4 4 4 4 4 4 5 6 6 6 6 7 7 6 6 7 7
7 6 6 6 6 6 6 6 6 6 5 5 4 3 3 3 3 3 3 3 3 4 4 4 4 4 4 4 4 5 5 5 6 7 7 7 7 7 6 6 6 7 7
7 6 6 6 6 6 6 6 6 6 6 5 4 4 4 4 4 4 3 3 4 4 5 5 5 5 5 5 5 6 6 6 7 7 7 7 7 7 7 7 7 8 8
Wind_Direction
348 342 330 347 352 356 5 1 360 1 357 355 353 348 345 339 336 335 330 329 326 328 305 267 272 279 279 259 244 233 228 228 228 226 225 221 219 220 224 228 227 224 226
331 325 315 321 328 340 354 357 350 351 350 346 344 336 330 328 327 326 323 322 320 320 316 300 291 283 279 263 249 239 230 231 231 229 230 233 232 226 227 231 231 229 229
319 317 308 308 313 323 336 340 339 342 345 342 338 332 328 326 322 320 320 318 311 307 305 304 294 269 267 257 248 242 238 239 238 233 234 238 238 233 233 232 233 233 236
307 311 307 301 306 315 322 321 323 325 329 328 331 332 329 323 318 316 315 314 310 307 303 296 287 272 265 261 252 247 244 244 244 240 238 240 240 240 238 237 237 239 239
294 299 305 303 302 309 316 319 318 317 320 321 326 326 323 319 315 313 309 308 304 303 298 290 283 274 263 259 257 252 248 247 247 245 241 240 241 244 240 237 239 241 239
284 290 297 300 299 304 309 310 315 311 314 319 319 316 311 312 309 304 304 303 298 295 289 285 284 269 262 260 258 254 250 247 244 246 245 240 241 243 239 237 239 240 241
277 286 288 295 299 299 304 302 305 310 309 313 314 310 306 305 304 301 301 298 295 290 284 281 279 274 266 259 256 258 255 249 243 245 247 240 240 240 239 242 242 243 242
270 277 283 288 295 298 300 298 300 303 302 304 309 309 305 304 303 301 297 294 289 284 285 281 279 276 269 257 257 260 256 249 243 243 244 242 242 243 244 246 248 247 246
271 273 277 283 288 291 296 294 295 298 297 297 302 303 302 299 300 299 293 285 278 279 284 283 281 277 272 266 258 258 254 250 247 248 245 243 244 246 247 249 252 251 249
271 271 267 272 278 282 289 293 291 290 292 294 298 299 298 296 294 292 288 280 273 274 280 279 279 276 274 268 261 258 252 253 251 248 244 242 246 248 247 249 253 256 254
270 270 268 272 276 279 282 287 290 289 289 294 300 300 298 296 295 291 286 282 275 273 277 279 274 271 273 266 263 259 257 256 259 258 253 247 247 246 245 248 251 254 256
263 264 267 272 272 273 277 285 292 293 291 291 294 297 296 297 296 288 281 284 281 276 276 277 273 270 271 265 260 259 259 257 262 267 260 255 249 245 246 247 247 253 257
264 263 263 268 269 270 274 281 287 288 291 291 291 292 291 292 290 286 283 286 284 280 277 272 267 266 264 262 262 261 258 261 268 271 263 258 251 248 251 249 247 250 253
267 263 262 261 264 267 271 277 280 280 282 288 290 293 289 287 286 289 289 289 287 282 274 273 269 264 260 260 264 264 259 265 269 270 268 263 257 254 256 256 251 251 250
267 263 258 262 266 267 270 273 275 276 278 282 284 288 286 281 282 285 290 295 283 274 268 269 270 269 266 263 269 271 270 270 267 268 268 268 264 259 257 255 254 253 247
270 267 259 260 262 264 266 266 272 274 273 272 276 275 273 276 279 280 285 288 280 267 265 264 268 270 271 271 272 270 268 272 272 269 268 267 263 261 267 266 266 257 251
268 267 258 255 254 257 261 263 269 272 272 271 272 268 266 272 278 285 287 285 276 266 265 262 267 268 267 268 268 266 268 271 275 268 268 268 269 266 270 274 275 262 255
267 267 257 249 253 258 262 265 268 270 273 269 270 263 266 272 276 280 282 280 273 265 264 265 270 273 272 269 271 272 277 275 271 265 266 268 269 271 275 275 273 263 254
266 261 256 247 252 261 268 272 273 277 275 268 262 259 268 276 275 274 273 275 264 254 253 260 262 268 273 274 280 282 287 282 274 267 262 262 267 270 274 269 261 257 251
266 263 258 246 252 259 263 265 272 284 284 274 268 263 266 273 273 273 267 263 252 247 252 252 253 258 265 274 283 286 287 281 274 269 271 271 270 271 271 270 265 261 260
263 260 261 245 249 253 257 260 265 274 281 281 273 266 265 267 268 270 267 252 244 246 248 249 245 250 258 268 277 280 286 280 271 266 274 278 281 281 277 270 268 265 262
260 263 260 249 249 251 254 256 262 263 275 281 272 266 267 267 267 267 261 250 242 246 248 247 245 253 263 269 275 275 281 278 268 268 277 282 283 283 282 274 270 263 261
259 266 266 262 261 265 262 256 255 257 261 268 271 268 267 267 270 272 260 249 251 251 255 251 247 251 267 278 278 277 276 272 271 277 280 279 280 281 285 282 269 269 268
266 267 266 264 267 271 265 253 252 251 260 270 272 271 261 255 265 273 257 243 238 252 260 261 254 262 274 283 278 272 272 274 279 285 285 283 284 287 290 282 271 270 273
275 265 262 268 263 263 260 251 245 251 258 265 269 253 231 236 260 274 273 255 245 252 259 266 273 278 280 283 284 279 276 274 281 287 290 288 290 293 292 292 286 280 280
271 264 262 270 273 268 259 255 250 248 251 258 261 244 242 253 260 268 275 271 260 262 264 270 273 275 277 280 283 290 287 284 285 288 290 290 292 293 290 293 291 287 284